TAURUS 2

operational
NORAD ID: 66295 Int'l Des: 2025-248 Owner: TURKS Country: TR
NOTLE

关于 TAURUS 2

正在加载描述...

实时位置

正在加载3D地球...

即将过境

高度历史

Altitude vs Time

uPlot chart will show altitude changes over time

两行轨道根数

1 66295U 25248C 25355.46164213 .00016452 00000-0 76484-3 0 9996
2 66295 45.4091 352.8133 0003174 137.8460 222.2671 15.19855368 7484
Epoch: Dec 21, 2025 • Age: 11 hours

当前状态

高度 507.8 km
速度 7.61 km/s
星下点 0.93°N, 71.38°W
发射日期 Nov 2, 2025
运行时间 0.1 years
类型 other

技术详情

分类 Payload
质量 0.45 kg
干质量 0.45 kg
总质量 0.45 kg
长度 0.03 m
直径 0.10 m
跨度 0.10 m
形状 Box
制造商 GUMUSH
平台类型 Cubesat 0.25U
阶段状态 In Orbit
所有者/国家 TURKS/TR

大型星座

Loading constellations...